Flag for U.S.A. Weather past 2 weeks in Springfield, Massachusetts, U.S.A.

Now
59 °F

Light rain. Fog.


Feels Like: 58 °F
Forecast: 55 / 61 °F
Wind: 7 mph from North

Location: Barnes Municipal Airport

Current Time: Oct 1, 2014 at 2:21:59 AM

Latest Report: Oct 1, 2014 at 1:53 AM


Visibility: 5 mi

Pressure: 30.03 "Hg

Humidity: 90%

Dew point: 56 °F

Location of SpringfieldLocation

Historic Weather in Springfield — Graph

°F

Springfield temperature yesterday

Maximum temperature yesterday: 62 °F (at 2:53 PM)
Minimum temperature yesterday: 58 °F (at 5:53 AM)
Average temperature yesterday: 60 °F

Past Weeks' High & Low Weather Summary

 TemperatureHumidityPressure
High85 °F (Sep 28, 2:53 PM)97% (Sep 18, 3:53 AM)30.61 "Hg (Sep 18, 3:53 AM)
Low38 °F (Sep 23, 5:53 AM)33% (Sep 18, 1:53 PM)29.57 "Hg (Sep 21, 10:53 PM)
Average60 °F75%30.12 "Hg
* Reported Sep 16 12:53 AM — Oct 1 12:53 AM, Springfield, Weather by CustomWeather, © 2014

Note: Actual official high and low records may vary slightly from our data, if they occured in-between our weather recording intervals... More about our weather records

Advertising

Springfield weather history for previous 24 hours

 ConditionsComfort  
Time TempWeatherWind HumidityBarometerVisibility
12:53 AM
Oct 1
59 °FFog.6 mph90%30.03 "Hg5 mi
11:53 PM
Sep 30
59 °FMostly cloudy.5 mph90%30.03 "Hg10 mi
11:00 PM59 °FOvercast.3 mph90%30.03 "Hg9 mi
9:53 PM61 °FOvercast.3 mph81%30.02 "Hg10 mi
8:53 PM61 °FOvercast.5 mph83%30.01 "Hg10 mi
7:53 PM61 °FOvercast.6 mph83%30.00 "Hg10 mi
6:53 PM62 °FOvercast.3 mph80%30.00 "Hg10 mi
5:53 PM62 °FOvercast.5 mph80%29.98 "Hg10 mi
4:53 PM62 °FOvercast.6 mph80%29.98 "Hg10 mi
3:53 PM62 °FOvercast.6 mph78%29.99 "Hg10 mi
2:53 PM62 °FOvercast.5 mph80%29.99 "Hg10 mi
1:53 PM61 °FMostly cloudy.6 mph81%29.99 "Hg10 mi
12:53 PM61 °FOvercast.3 mph81%30.01 "Hg10 mi
11:53 AM60 °FOvercast.6 mph83%30.01 "Hg5 mi
10:53 AM59 °FOvercast.N/A84%30.02 "Hg10 mi
9:53 AM59 °FOvercast.N/A87%30.03 "Hg10 mi
9:04 AM58 °FMore clouds than sun.5 mph90%30.03 "Hg10 mi
7:53 AM58 °FMostly cloudy.7 mph90%30.02 "Hg9 mi
6:53 AM58 °FLight rain. Fog.5 mph93%30.01 "Hg3 mi
5:53 AM58 °FFog.5 mph90%30.00 "Hg4 mi
4:53 AM60 °FOvercast.5 mph80%29.98 "Hg10 mi
3:53 AM60 °FOvercast.8 mph80%29.98 "Hg10 mi
2:53 AM60 °FOvercast.6 mph80%29.98 "Hg10 mi
Weather by CustomWeather, © 2014

See weather overviewHow to use our weather pages